Content
SEND FEEDBACK

Daily
Averages
Monthly
Summary
United States of America

STAUNTON, VIRGINIA


Home > North America > United States > Virginia
Elevation: 1343 feet     Latitude: 38 09N     Longitude: 079 02W

WEATHER
 
SELECT A DAY
Number of Records: 467,985;   Date Range: 1/1/95 - 12/18/14
 
SHARE

PRINT THIS DATA

[ ← Previous Day ]
WEATHER ALMANAC - FEBRUARY 13, 2013
[ Next Day → ]
[ °C ]   °F
Weather ElementAverageHighLow
Temperature37.7 °F46.9 °F (12:55 pm)31.8 °F (3:55 am)
Dewpoint28.9 °F35.6 °F (4:15 pm)23 °F (12:55 pm)
Humidity72.6 %94 % (11:35 pm)39 % (12:55 pm)
Barometer29.77 in29.93 in (12:35 am)29.64 in (4:15 pm)
Wind Speed2.1 mph9.2 mph (1:15 pm)
Weather ElementAverage
Visibility7.4 mi
Wind DirectionESE (103.6 °)

Weather ElementTotal
Precipitation0.08 in
Heating Degree Days25.7 (Base 65)
Averaged from 70 records on February 13, 2013
WEATHER CONDITIONS BREAKOUT
WIND DIRECTION BREAKOUT
WEATHER BY HOUR - FEBRUARY 13, 2013
[ °C ]   °F
Local TimeTemperatureDewpointHumidityBarometerVisibilityWind DirectionWind SpeedGust SpeedPrecipitationEventsConditions
12:35 AM36.7 °F25.3 °F64 %29.93 in10.0 miCalmScattered Clouds
12:55 AM36.3 °F24.6 °F63 %29.92 in10.0 miCalmScattered Clouds
1:15 AM33.8 °F25.2 °F71 %29.91 in10.0 miCalmClear
1:35 AM34.0 °F23.9 °F67 %29.91 in10.0 miCalmClear
1:55 AM33.6 °F23.9 °F68 %29.90 in10.0 miCalmClear
2:15 AM33.4 °F24.1 °F69 %29.88 in10.0 miCalmClear
2:35 AM32.4 °F24.6 °F73 %29.87 in10.0 miCalmClear
2:55 AM33.1 °F24.8 °F72 %29.87 in10.0 miCalmMostly Cloudy
3:15 AM32.5 °F24.8 °F73 %29.86 in10.0 miCalmMostly Cloudy
3:35 AM32.2 °F24.4 °F73 %29.86 in10.0 miCalmScattered Clouds
3:55 AM31.8 °F24.8 °F75 %29.86 in10.0 miCalmMostly Cloudy
4:15 AM32.2 °F26.2 °F79 %29.86 in10.0 miCalmOvercast
4:35 AM33.3 °F25.7 °F74 %29.85 in10.0 miCalmOvercast
4:55 AM33.6 °F26.2 °F74 %29.85 in10.0 miCalmOvercast
5:15 AM34.2 °F26.6 °F74 %29.85 in10.0 miCalmOvercast
5:35 AM34.7 °F26.8 °F73 %29.84 in10.0 miCalmOvercast
5:55 AM35.8 °F26.8 °F70 %29.83 in10.0 miCalmOvercast
6:15 AM35.8 °F27.3 °F71 %29.82 in10.0 miCalmOvercast
6:35 AM36.9 °F24.6 °F61 %29.82 in10.0 miNorth (10°)3.5 mphOvercast
7:15 AM36.0 °F26.8 °F69 %29.83 in10.0 miCalmOvercast
7:35 AM36.5 °F27.3 °F69 %29.84 in10.0 miCalmOvercast
7:55 AM36.7 °F28.2 °F71 %29.83 in10.0 miCalmOvercast
8:15 AM38.1 °F27.0 °F64 %29.83 in10.0 miCalmOvercast
8:35 AM39.2 °F24.8 °F56 %29.83 in10.0 miNorth (10°)3.5 mphOvercast
8:55 AM39.4 °F25.3 °F57 %29.82 in10.0 miNE (40°)3.5 mphOvercast
9:15 AM39.4 °F25.0 °F56 %29.82 in10.0 miCalmOvercast
9:35 AM40.3 °F24.4 °F53 %29.81 in10.0 miCalmOvercast
9:55 AM41.9 °F23.4 °F48 %29.81 in10.0 miCalmOvercast
10:15 AM42.8 °F23.5 °F47 %29.81 in10.0 miCalmOvercast
10:35 AM43.2 °F24.3 °F47 %29.80 in10.0 miCalmOvercast
10:55 AM43.7 °F25.0 °F48 %29.79 in10.0 miCalmOvercast
11:15 AM44.4 °F24.6 °F46 %29.78 in10.0 miCalmOvercast
11:35 AM45.5 °F25.0 °F45 %29.76 in10.0 miCalmOvercast
11:55 AM45.9 °F24.4 °F43 %29.75 in10.0 miENE (70°)3.5 mphOvercast
12:15 PM46.0 °F23.7 °F42 %29.74 in10.0 miCalmOvercast
12:35 PM46.4 °F23.9 °F41 %29.73 in10.0 miCalmOvercast
12:55 PM46.9 °F23.0 °F39 %29.71 in10.0 miEast (80°)8.1 mphOvercast
1:15 PM45.5 °F25.9 °F46 %29.71 in10.0 miEast (80°)9.2 mphOvercast
1:35 PM43.9 °F28.6 °F55 %29.69 in10.0 miEast (90°)4.6 mphLight Drizzle
1:55 PM42.6 °F31.1 °F64 %29.67 in10.0 miESE (120°)4.6 mphOvercast
2:15 PM42.3 °F30.9 °F64 %29.66 in10.0 miSouth (170°)6.9 mphOvercast
2:35 PM41.2 °F32.4 °F71 %29.66 in10.0 miSouth (190°)5.8 mphOvercast
2:55 PM40.6 °F32.9 °F74 %29.65 in10.0 miCalmLight Drizzle
3:15 PM40.3 °F34.0 °F78 %29.65 in5.0 miCalmRainLight Rain
3:35 PM39.2 °F34.3 °F83 %29.65 in5.0 miNorth (350°)6.9 mphLight Drizzle
3:55 PM38.7 °F34.9 °F86 %29.65 in5.0 miNorth (350°)6.9 mphDrizzle
4:15 PM38.7 °F35.6 °F89 %29.64 in4.0 miNorth (350°)4.6 mphOvercast
4:35 PM38.5 °F34.7 °F86 %29.64 in7.0 miNorth (10°)4.6 mphRainLight Rain
4:55 PM38.3 °F34.3 °F86 %29.64 in7.0 miNNE (20°)4.6 mphLight Drizzle
5:15 PM38.3 °F34.2 °F85 %29.64 in5.0 miNorth (360°)3.5 mphRainLight Rain
5:35 PM38.1 °F34.2 °F86 %29.64 in5.0 miNorth (350°)4.6 mphRainLight Rain
5:55 PM37.9 °F34.7 °F88 %29.65 in3.0 miNNW (340°)4.6 mphRainLight Rain
6:15 PM37.4 °F34.7 °F90 %29.67 in3.0 miNNW (340°)5.8 mphRainRain
6:35 PM37.2 °F34.5 °F90 %29.68 in2.5 miNNW (340°)4.6 mph0.01 inRainRain
6:55 PM36.1 °F33.6 °F91 %29.69 in2.5 miNorth (350°)8.1 mph0.04 inSnowLight Snow
7:15 PM35.6 °F33.3 °F91 %29.70 in2.5 miNorth (350°)4.6 mph0.01 inSnowLight Snow
7:35 PM35.6 °F33.6 °F92 %29.71 in2.5 miCalm0.01 inRainRain
7:55 PM35.6 °F33.4 °F92 %29.72 in2.5 miCalm0.01 inDrizzle
8:15 PM35.6 °F33.6 °F92 %29.72 in2.0 miWNW (300°)3.5 mphOvercast
8:35 PM35.2 °F33.4 °F93 %29.72 in2.5 miWNW (290°)3.5 mphOvercast
8:55 PM34.9 °F33.1 °F93 %29.73 in2.5 miNW (310°)3.5 mphOvercast
9:15 PM35.4 °F33.6 °F93 %29.74 in3.0 miNNW (340°)3.5 mphOvercast
9:35 PM35.8 °F33.8 °F92 %29.76 in3.0 miCalmOvercast
9:55 PM35.4 °F33.3 °F92 %29.76 in3.0 miNNW (330°)3.5 mphOvercast
10:15 PM35.2 °F33.3 °F92 %29.77 in2.5 miNW (310°)3.5 mphOvercast
10:35 PM34.9 °F32.9 °F92 %29.77 in2.5 miCalmOvercast
10:55 PM34.9 °F32.9 °F92 %29.77 in1.8 miNNW (340°)3.5 mphOvercast
11:15 PM34.7 °F32.9 °F93 %29.78 in0.8 miNNW (340°)4.6 mphOvercast
11:35 PM34.5 °F32.9 °F94 %29.79 in0.5 miNW (320°)3.5 mphFogFog
11:55 PM34.5 °F32.9 °F94 %29.80 in0.2 miCalmFogFog
Hourly data recorded from KSHD, located miles away from Staunton, Virginia







STORIES FROM OUR PARTNERS